Regional Weather Roundup
Issued by NWS

Home | Current Version | Previous Version | Text Only | Print | Product List | Glossary Off
Versions: 1 2 3 4 5 6 7 8 9 10 11 12 13 14 15 16 17 18 19 20 21 22 23 24 25 26 27 28 29 30 31 32 33 34 35 36 37 38 39 40 41 42 43 44 45 46 47 48 49 50

000
ASUS43 KMPX 070110
RWRMN
WEATHER ROUNDUP FOR MINNESOTA
NATIONAL WEATHER SERVICE TWIN CITIES/CHANHASSEN MN
700 PM CST TUE DEC 06 2016


NOTE: "FAIR" INDICATES FEW OR NO CLOUDS BELOW 12,000 FEET WITH NO
SIGNIFICANT WEATHER AND/OR OBSTRUCTIONS TO VISIBILITY. N/A MEANS
CURRENT SKY AND/OR WEATHER CONDITIONS ARE NOT AVAILABLE.

MNZ060>063-068>070-070200-
   Twin Cities Metro

CITY           SKY/WX    TMP DP  RH WIND       PRES   REMARKS
TWIN CITIES    FLURRIES  21  10  62 W17G31    29.76R WCI   7
ST PAUL        CLOUDY    22  12  65 W20G29    29.78R WCI   7
CRYSTAL        CLOUDY    21  10  62 W21G31    29.74R WCI   5
BLAINE         FLURRIES  23  16  74 SW18G28   29.73R WCI   9
LAKEVILLE      FLURRIES  19  12  73 W16G24    29.78R WCI   5
EDEN PRAIRIE   CLOUDY    21  10  62 W21G30    29.76R WCI   5
SOUTH ST PAUL  CLOUDY    22  12  64 W20G29    29.77R WCI   7
LAKE ELMO      FLURRIES  23  14  68 W18G29    29.75S WCI   9
$$
MNZ001>005-007-008-013>017-022>024-027-028-070200-
   Northwest Minnesota

CITY           SKY/WX    TMP DP  RH WIND       PRES   REMARKS
BEMIDJI        LGT SNOW  21  18  88 W14G22    29.46R WCI   8
HALLOCK        LGT SNOW  23  21  93 NW35G44   29.51R VSB 3/4 WCI   4
ROSEAU         LGT SNOW  23  18  80 SW3       29.44R
WARROAD        LGT SNOW  21  18  86 W3        29.44R
THIEF RVR FALL   N/A    N/A N/A N/A MISG        N/A
CROOKSTON      SNOW      19  19 100 NW33G41   29.57R VSB 1/2 WCI   0
FOSSTON        LGT SNOW  19  19 100 W21G31    29.51R WCI   3
DETROIT LAKES  LGT SNOW  18  16  93 W29G37    29.59R WCI  -2
MOORHEAD       MIX PCPN  16  10  79 W28G40    29.68R WCI  -4
PARK RAPIDS    LGT SNOW  20  14  77 W24       29.50R WCI   3
$$
MNZ006-009>011-018-025>026-070200-
   North Central Minnesota

CITY           SKY/WX    TMP DP  RH WIND       PRES   REMARKS
BAUDETTE       FLURRIES  20  17  88 W5        29.42R WCI  13
FLAG ISLAND    MOCLDY    23  19  86 W5        29.41S WCI  17
INTL FALLS     LGT SNOW  19  16  88 E5        29.39S FOG     WCI  12
WASKISH        FLURRIES  21  19  93 NW10      29.43R WCI  10
BIG FORK       CLOUDY    19  18  93 SW6       29.38R WCI  11
LONGVILLE      LGT SNOW  21  19  93 W7        29.47R WCI  13
GRAND RAPIDS   FLURRIES  22  19  89 SW9       29.43R WCI  12
CRANE LAKE     LGT SNOW  19  18  93 CALM      29.43F VSB 1
ORR            LGT SNOW  19  16  86 CALM      29.36S
COOK           LGT SNOW  19  18  93 S6        29.40S WCI  11
$$
MNZ012-019>021-037-070200-
   Northeast Minnesota

CITY           SKY/WX    TMP DP  RH WIND       PRES   REMARKS
DULUTH         LGT SNOW  20  16  84 SW18G26   29.46F FOG     WCI   5
ELY            LGT SNOW  19  16  86 S8        29.42S WCI   9
HIBBING        FLURRIES  19  16  88 S10       29.40S WCI   7
EVELETH        LGT SNOW  20  17  86 S12       29.42S WCI   8
DULUTH HARBOR  LGT SNOW  25  19  80 SW24G30   29.54S WCI   9
TWO HARBORS    LGT SNOW  25  19  80 SW16G24   29.47S WCI  12
SILVER BAY     FLURRIES  23  19  86 S13       29.47F WCI  11
GRAND MARAIS     N/A     29  25  85 SW28      29.53S WCI  14
G MARAIS ARPRT LGT SNOW  19  16  86 S9        29.46S VSB 3/4 WCI   9
$$
MNZ029>031-032-039>041-046>048-054>057-064-070200-
   West Central Minnesota

CITY           SKY/WX    TMP DP  RH WIND       PRES   REMARKS
FERGUS FALLS   LGT SNOW  16  12  86 W31G37    29.73R VSB 1   WCI  -5
WHEATON        LGT SNOW  18  14  86 W22G32    29.81R WCI   0
MORRIS         LGT SNOW  16  10  79 W36       29.76R WCI  -6
ALEXANDRIA     LGT SNOW  16  13  88 W29G36    29.69R VSB 3/4 WCI  -4
ELBOW LAKE     LGT SNOW  15  13  92 NW24G37   29.73R VSB 1   WCI  -4
WADENA         LGT SNOW  16  12  86 W24       29.58R WCI  -3
GLENWOOD       LGT SNOW  16  12  86 W24G44    29.71R VSB 3/4 WCI  -3
BENSON         FLURRIES  18  10  73 NW26G35   29.78R WCI  -1
ORTONVILLE     CLOUDY    16   9  73 W25G37    29.82R WCI  -3
MADISON        CLEAR     18   9  68 W30G38    29.86R WCI  -2
WILLMAR        FLURRIES  18  12  79 W28G36    29.80R WCI  -1
$$
MNZ033>034-036-042>043-049>051-058-059-070200-
   Central Minnesota

CITY           SKY/WX    TMP DP  RH WIND       PRES   REMARKS
ST CLOUD       FLURRIES  18  13  80 W18G37    29.70R WCI   2
PAYNESVILLE    LGT SNOW  17  13  82 W26G35    29.74R WCI  -1
AITKIN         MIX PCPN  21  12  68 SW17G28   29.50R WCI   7
PINE RIVER     LGT SNOW  19  16  86 W14       29.55R WCI   6
BRAINERD       LGT SNOW  19  13  77 W22       29.56R WCI   2
STAPLES        LGT SNOW  16  12  86 W23       29.59R WCI  -2
LONG PRAIRIE   LGT SNOW  18  12  79 SW21G26   29.66R WCI   1
LITTLE FALLS   FLURRIES  19  12  73 W15G26    29.64R WCI   5
LITCHFIELD     FLURRIES  19  12  73 W15G25    29.77R WCI   5
BUFFALO        FLURRIES  20  13  73 SW21G28   29.76R WCI   5
MAPLE LAKE     LGT SNOW  21  16  81 W13G22    29.75R WCI   9
HUTCHINSON     CLOUDY    18  12  77 W28G38    29.79R WCI   0
$$
MNZ037-044-045-052-053-070200-
   East Central Minnesota

CITY           SKY/WX    TMP DP  RH WIND       PRES   REMARKS
PRINCETON      LGT SNOW  21  16  79 SW17G29   29.68R WCI   7
MORA           FLURRIES  19  14  79 W15G25    29.64R WCI   5
CAMBRIDGE      FLURRIES  23  12  63 SW15G26   29.66R WCI  10
RUSH CITY      CLOUDY    21  14  73 SW15G24   29.66R WCI   8
MOOSE LAKE     LGT SNOW  21  18  86 SW14G22   29.52R WCI   8
HINCKLEY       FLURRIES  23  18  80 SW18G28   29.61R WCI   9
CLOQUET        LGT SNOW  19  16  86 S16G23    29.49R WCI   5
MCGREGOR       CLOUDY    21  18  86 SW13G23   29.51R WCI   9
$$
MNZ071>073-080-081-089-090-097-098-070200-
   Southwest Minnesota

CITY           SKY/WX    TMP DP  RH WIND       PRES   REMARKS
MONTEVIDEO     CLOUDY    16   9  73 NW22G31   29.85R WCI  -2
GRANITE FALLS  CLEAR     17  10  74 W25G36    29.87R WCI  -1
CANBY          PTCLDY    15   8  74 NW23G35   29.88S WCI  -3
MARSHALL       CLEAR     14   7  73 W30G38    29.86R WCI  -7
REDWOOD FALLS  MOCLDY    16   6  65 W24G40    29.85R WCI  -2
OLIVIA         CLEAR     18  10  73 W29G35    29.82R WCI  -2
PIPESTONE      MOCLDY    14   9  79 NW22G32   29.88S WCI  -4
WINDOM         CLEAR     16   9  73 W24G31    29.85R WCI  -3
WORTHINGTON    PTCLDY    15   9  76 W24G32    29.89R WCI  -4
JACKSON        CLEAR     18  10  73 W28G35    29.88R WCI  -1
TRACY          CLEAR     16   9  75 W18G36    29.86R WCI  -1
SLAYTON        FLURRIES  14   9  82 W28G36    29.85S WCI  -6
$$
MNZ065>067-074>077-082>085-091>093-070200-
   South Central Minnesota

CITY           SKY/WX    TMP DP  RH WIND       PRES   REMARKS
MANKATO        CLEAR     18  10  71 W21G26    29.84R WCI   1
NEW ULM        CLOUDY    16   9  73 W22G32    29.85R WCI  -2
ST JAMES       PTCLDY    18  10  73 W21G30    29.88R WCI   1
FAIRMONT       PTCLDY    19  12  74 W23G29    29.89R WCI   2
GLENCOE        CLOUDY    19  14  79 W23G32    29.79R WCI   2
FARIBAULT      FLURRIES  19  12  73 SW21G29   29.82R WCI   3
OWATONNA       FLURRIES  19  12  73 W26       29.82R WCI   1
WASECA         CLOUDY    19  12  73 W22G31    29.85R WCI   3
ALBERT LEA     CLOUDY    25  16  68 W13G25    29.85R WCI  13
$$
MNZ078>079-086>088-094>096-070200-
   Southeast Minnesota

CITY           SKY/WX    TMP DP  RH WIND       PRES   REMARKS
ROCHESTER      FLURRIES  21  14  74 W26G36    29.81R WCI   4
RED WING       CLOUDY    23  12  63 W21G35    29.78R WCI   8
STANTON        CLOUDY    22  12  65 W20G35    29.79R WCI   7
DODGE CENTER     N/A     19  12  73 W23G32    29.81R WCI   2
WINONA         CLOUDY    28  19  69 W10G20    29.82S WCI  19
AUSTIN         FLURRIES  21  14  73 W23G31    29.84R WCI   5
PRESTON        CLOUDY    22  15  75 W20       29.82R WCI   7
$$
ABBREVIATIONS USED IN REMARKS
   TC - TEMPERATURES IN CELSIUS
  WCI - WIND CHILL INDEX
   HX - HEAT INDEX
  VSB - VISIBILITY
$$




USA.gov is the U.S. government's official web portal to all federal, state and local government web resources and services.